H1 CPF 2 NER 2022 11 14 9 318 01 glonass140 H2 1903001 9140 44299 2022 11 14 0 0 0 2022 11 17 23 45 0 900 1 1 0 0 0 1 H9 10 0 59897 0.00000 0 -3895868.758 -11119589.014 22646810.092 10 0 59897 900.00000 0 -1087563.495 -11007487.394 23009637.679 10 0 59897 1800.00000 0 1738474.709 -11099565.420 22926783.074 10 0 59897 2700.00000 0 4512995.581 -11392246.371 22399920.061 10 0 59897 3600.00000 0 7168796.613 -11869944.931 21439290.765 10 0 59897 4500.00000 0 9643260.290 -12505737.988 20063506.747 10 0 59897 5400.00000 0 11880702.533 -13262526.541 18299192.254 10 0 59897 6300.00000 0 13834436.799 -14094640.494 16180475.936 10 0 59897 7200.00000 0 15468469.683 -14949819.837 13748340.030 10 0 59897 8100.00000 0 16758758.823 -15771490.029 11049838.467 10 0 59897 9000.00000 0 17693981.805 -16501237.085 8137197.777 10 0 59897 9900.00000 0 18275784.420 -17081379.203 5066817.073 10 0 59897 10800.00000 0 18518498.171 -17457527.247 1898185.312 10 0 59897 11700.00000 0 18448338.905 -17581026.616 -1307263.995 10 0 59897 12600.00000 0 18102119.855 -17411177.187 -4487338.998 10 0 59897 13500.00000 0 17525532.980 -16917137.114 -7580293.935 10 0 59897 14400.00000 0 16771070.678 -16079429.099 -10526028.395 10 0 59897 15300.00000 0 15895675.107 -14890983.916 -13267257.848 10 0 59897 16200.00000 0 14958214.163 -13357675.363 -15750632.337 10 0 59897 17100.00000 0 14016890.739 -11498321.961 -17927781.067 10 0 59897 18000.00000 0 13126694.818 -9344153.208 -19756261.894 10 0 59897 18900.00000 0 12337006.443 -6937760.642 -21200396.679 10 0 59897 19800.00000 0 11689451.267 -4331575.734 -22231975.640 10 0 59897 20700.00000 0 11216099.903 -1585936.729 -22830816.325 10 0 59897 21600.00000 0 10938087.770 1233176.098 -22985165.815 10 0 59897 22500.00000 0 10864714.379 4056643.183 -22691937.721 10 0 59897 23400.00000 0 10993060.693 6814842.477 -21956778.834 10 0 59897 24300.00000 0 11308141.200 9440310.692 -20793963.656 10 0 59897 25200.00000 0 11783584.544 11870318.075 -19226118.441 10 0 59897 26100.00000 0 12382814.013 14049249.170 -17283779.824 10 0 59897 27000.00000 0 13060677.773 15930690.204 -15004796.568 10 0 59897 27900.00000 0 13765459.386 17479135.973 -12433586.100 10 0 59897 28800.00000 0 14441182.846 18671245.153 -9620260.800 10 0 59897 29700.00000 0 15030113.586 19496592.162 -6619641.620 10 0 59897 30600.00000 0 15475348.550 19957885.181 -3490179.150 10 0 59897 31500.00000 0 15723384.601 20070642.591 -292804.240 10 0 59897 32400.00000 0 15726555.547 19862343.300 2910268.273 10 0 59897 33300.00000 0 15445233.890 19371088.702 6056758.344 10 0 59897 34200.00000 0 14849703.678 18643834.684 9085537.188 10 0 59897 35100.00000 0 13921625.117 17734270.138 11937817.105 10 0 59897 36000.00000 0 12655029.136 16700432.973 14558291.157 10 0 59897 36900.00000 0 11056800.302 15602165.281 16896200.551 10 0 59897 37800.00000 0 9146628.046 14498515.408 18906309.532 10 0 59897 38700.00000 0 6956428.496 13445196.306 20549769.815 10 0 59897 39600.00000 0 4529261.276 12492206.466 21794858.953 10 0 59897 40500.00000 0 1917786.297 11681712.364 22617579.826 10 0 59897 41400.00000 0 -817675.708 11046279.905 23002111.147 10 0 59897 42300.00000 0 -3611399.063 10607527.539 22941101.609 10 0 59897 43200.00000 0 -6394733.049 10375256.001 22435803.190 10 0 59897 44100.00000 0 -9098704.572 10347089.853 21496041.808 10 0 59897 45000.00000 0 -11656637.352 10508644.911 20140026.256 10 0 59897 45900.00000 0 -14006680.959 10834214.026 18393999.048 10 0 59897 46800.00000 0 -16094146.609 11287942.394 16291735.373 10 0 59897 47700.00000 0 -17873554.286 11825443.434 13873899.022 10 0 59897 48600.00000 0 -19310307.470 12395788.000 11187266.625 10 0 59897 49500.00000 0 -20381926.775 12943784.165 8283833.957 10 0 59897 50400.00000 0 -21078791.558 13412452.438 5219820.446 10 0 59897 51300.00000 0 -21404358.783 13745592.848 2054590.065 10 0 59897 52200.00000 0 -21374849.870 13890336.017 -1150491.417 10 0 59897 53100.00000 0 -21018418.277 13799570.534 -4333241.200 10 0 59897 54000.00000 0 -20373832.456 13434143.772 -7431863.526 10 0 59897 54900.00000 0 -19488728.967 12764742.210 -10386149.797 10 0 59897 55800.00000 0 -18417508.875 11773370.543 -13138651.081 10 0 59897 56700.00000 0 -17218965.682 10454365.398 -15635799.881 10 0 59897 57600.00000 0 -15953744.546 8814898.770 -17828958.853 10 0 59897 58500.00000 0 -14681739.908 6874947.842 -19675375.411 10 0 59897 59400.00000 0 -13459541.380 4666730.138 -21139023.083 10 0 59897 60300.00000 0 -12338035.841 2233625.530 -22191312.624 10 0 59897 61200.00000 0 -11360267.216 -371371.619 -22811658.391 10 0 59897 62100.00000 0 -10559644.586 -3087607.076 -22987888.427 10 0 59897 63000.00000 0 -9958574.554 -5849047.703 -22716489.678 10 0 59897 63900.00000 0 -9567575.904 -8586794.311 -22002683.032 10 0 59897 64800.00000 0 -9384914.079 -11231722.061 -20860326.232 10 0 59897 65700.00000 0 -9396770.946 -13717138.428 -19311646.144 10 0 59897 66600.00000 0 -9577942.480 -15981347.671 -17386805.302 10 0 59897 67500.00000 0 -9893034.458 -17970014.611 -15123311.052 10 0 59897 68400.00000 0 -10298104.899 -19638228.848 -12565278.887 10 0 59897 69300.00000 0 -10742682.855 -20952183.005 -9762564.708 10 0 59897 70200.00000 0 -11172076.929 -21890395.107 -6769783.528 10 0 59897 71100.00000 0 -11529874.527 -22444424.495 -3645234.564 10 0 59897 72000.00000 0 -11760524.687 -22619052.254 -449754.767 10 0 59897 72900.00000 0 -11811893.860 -22431920.054 2754475.711 10 0 59897 73800.00000 0 -11637685.376 -21912644.312 5905151.784 10 0 59897 74700.00000 0 -11199619.437 -21101444.827 8941060.582 10 0 59897 75600.00000 0 -10469280.953 -20047347.525 11803273.134 10 0 59897 76500.00000 0 -9429556.989 -18806038.651 14436287.019 10 0 59897 77400.00000 0 -8075603.286 -17437462.038 16789097.757 10 0 59897 78300.00000 0 -6415299.359 -16003261.349 18816178.655 10 0 59897 79200.00000 0 -4469173.235 -14564175.021 20478351.009 10 0 59897 80100.00000 0 -2269799.179 -13177492.932 21743528.960 10 0 59897 81000.00000 0 139306.586 -11894680.595 22587326.037 10 0 59897 81900.00000 0 2705246.498 -10759269.038 22993513.148 10 0 59897 82800.00000 0 5367694.376 -9805097.151 22954320.519 10 0 59897 83700.00000 0 8061160.185 -9054978.285 22470578.943 10 0 59897 84600.00000 0 10717474.316 -8519845.220 21551698.393 10 0 59897 85500.00000 0 13268389.851 -8198407.879 20215484.809 10 0 59898 0.00000 0 15648196.506 -8077337.034 18487798.714 10 0 59898 900.00000 0 17796240.781 -8131965.644 16402060.735 10 0 59898 1800.00000 0 19659245.998 -8327478.361 13998615.186 10 0 59898 2700.00000 0 21193341.487 -8620539.237 11323959.822 10 0 59898 3600.00000 0 22365714.179 -8961289.911 8429857.668 10 0 59898 4500.00000 0 23155815.550 -9295634.724 5372346.084 10 0 59898 5400.00000 0 23556073.590 -9567717.102 2210661.280 10 0 59898 6300.00000 0 23572079.730 -9722483.158 -993901.810 10 0 59898 7200.00000 0 23222242.553 -9708224.458 -4179172.727 10 0 59898 8100.00000 0 22536922.203 -9478992.284 -7283309.128 10 0 59898 9000.00000 0 21557081.180 -8996780.696 -10245997.617 10 0 59898 9900.00000 0 20332507.537 -8233385.035 -13009628.102 10 0 59898 10800.00000 0 18919684.615 -7171855.783 -15520418.569 10 0 59898 11700.00000 0 17379396.500 -5807484.470 -17729467.887 10 0 59898 12600.00000 0 15774169.751 -4148277.971 -19593715.470 10 0 59898 13500.00000 0 14165658.931 -2214898.895 -21076788.612 10 0 59898 14400.00000 0 12612086.041 -40072.260 -22149720.318 10 0 59898 15300.00000 0 11165841.749 2332518.714 -22791523.072 10 0 59898 16200.00000 0 9871349.587 4849803.350 -22989606.767 10 0 59898 17100.00000 0 8763283.154 7451296.619 -22740032.134 10 0 59898 18000.00000 0 7865211.563 10071393.160 -22047594.154 10 0 59898 18900.00000 0 7188730.146 12641887.113 -20925733.378 10 0 59898 19800.00000 0 6733112.853 15094612.909 -19396276.427 10 0 59898 20700.00000 0 6485500.687 17364096.570 -17489010.458 10 0 59898 21600.00000 0 6421617.502 19390106.638 -15241099.753 10 0 59898 22500.00000 0 6506982.100 21119997.750 -12696355.853 10 0 59898 23400.00000 0 6698564.228 22510748.489 -9904375.827 10 0 59898 24300.00000 0 6946813.066 23530608.136 -6919566.081 10 0 59898 25200.00000 0 7197970.887 24160283.515 -3800071.545 10 0 59898 26100.00000 0 7396572.331 24393616.708 -606632.181 10 0 59898 27000.00000 0 7488022.008 24237726.192 2598609.728 10 0 59898 27900.00000 0 7421139.903 23712606.849 5753327.236 10 0 59898 28800.00000 0 7150565.793 22850207.230 8796226.474 10 0 59898 29700.00000 0 6638920.217 21693024.665 11668240.112 10 0 59898 30600.00000 0 5858630.225 20292278.889 14313672.930 10 0 59898 31500.00000 0 4793342.791 18705742.392 16681277.177 10 0 59898 32400.00000 0 3438866.398 16995319.598 18725237.348 10 0 59898 33300.00000 0 1803601.387 15224476.920 20406046.154 10 0 59898 34200.00000 0 -91558.790 13455631.323 21691255.843 10 0 59898 35100.00000 0 -2213851.303 11747606.035 22556091.783 10 0 59898 36000.00000 0 -4519766.882 10153258.591 22983917.920 10 0 59898 36900.00000 0 -6956625.687 8717378.793 22966546.470 10 0 59898 37800.00000 0 -9464541.458 7474942.518 22504387.077 10 0 59898 38700.00000 0 -11978693.614 6449792.363 21606433.363 10 0 59898 39600.00000 0 -14431814.329 5653798.529 20290087.539 10 0 59898 40500.00000 0 -16756789.057 5086533.438 18580826.448 10 0 59898 41400.00000 0 -18889264.163 4735472.568 16511714.993 10 0 59898 42300.00000 0 -20770154.832 4576712.412 14122775.555 10 0 59898 43200.00000 0 -22347950.346 4576175.169 11460224.535 10 0 59898 44100.00000 0 -23580721.637 4691249.640 8575589.485 10 0 59898 45000.00000 0 -24437748.121 4872799.708 5524722.834 10 0 59898 45900.00000 0 -24900695.898 5067456.235 2366730.106 10 0 59898 46800.00000 0 -24964297.828 5220096.114 -837167.524 10 0 59898 47700.00000 0 -24636506.552 5276404.071 -4024814.819 10 0 59898 48600.00000 0 -23938113.180 5185408.890 -7134325.661 10 0 59898 49500.00000 0 -22901846.831 4901886.408 -10105284.566 10 0 59898 50400.00000 0 -21570991.852 4388526.838 -12879922.886 10 0 59898 51300.00000 0 -19997579.967 3617773.518 -15404246.525 10 0 59898 52200.00000 0 -18240232.584 2573253.716 -17629092.754 10 0 59898 53100.00000 0 -16361743.426 1250739.176 -19511094.880 10 0 59898 54000.00000 0 -14426502.682 -341406.268 -21013535.459 10 0 59898 54900.00000 0 -12497870.676 -2182313.135 -22107070.825 10 0 59898 55800.00000 0 -10635611.370 -4239225.306 -22770312.187 10 0 59898 56700.00000 0 -8893493.465 -6468627.680 -22990251.433 10 0 59898 57600.00000 0 -7317159.914 -8817836.941 -22762522.767 10 0 59898 58500.00000 0 -5942355.369 -11226990.127 -22091494.539 10 0 59898 59400.00000 0 -4793585.927 -13631348.740 -20990189.005 10 0 59898 60300.00000 0 -3883267.252 -15963822.579 -19480031.128 10 0 59898 61200.00000 0 -3211396.455 -18157607.740 -17590431.015 10 0 59898 62100.00000 0 -2765760.801 -20148828.317 -15358208.010 10 0 59898 63000.00000 0 -2522673.381 -21879070.824 -12826867.678 10 0 59898 63900.00000 0 -2448203.470 -23297704.698 -10045746.163 10 0 59898 64800.00000 0 -2499848.014 -24363891.285 -7069039.148 10 0 59898 65700.00000 0 -2628571.911 -25048196.883 -3954735.155 10 0 59898 66600.00000 0 -2781128.974 -25333742.224 -763475.071 10 0 59898 67500.00000 0 -2902563.576 -25216840.722 2442638.772 10 0 59898 68400.00000 0 -2938785.469 -24707099.524 5601259.625 10 0 59898 69300.00000 0 -2839107.457 -23826980.401 8651014.690 10 0 59898 70200.00000 0 -2558637.506 -22610840.352 11532700.349 10 0 59898 71100.00000 0 -2060423.535 -21103493.760 14190430.643 10 0 59898 72000.00000 0 -1317260.032 -19358357.844 16572716.567 10 0 59898 72900.00000 0 -313080.338 -17435260.295 18633455.734 10 0 59898 73800.00000 0 956123.866 -15398001.583 20332814.047 10 0 59898 74700.00000 0 2481894.188 -13311774.111 21637983.444 10 0 59898 75600.00000 0 4243425.277 -11240545.598 22523802.469 10 0 59898 76500.00000 0 6208207.754 -9244514.903 22973229.175 10 0 59898 77400.00000 0 8333167.780 -7377745.007 22977658.552 10 0 59898 78300.00000 0 10566256.474 -5686069.951 22537079.595 10 0 59898 79200.00000 0 12848424.057 -4205360.984 21660069.787 10 0 59898 80100.00000 0 15115897.866 -2960222.245 20363627.548 10 0 59898 81000.00000 0 17302671.072 -1963168.530 18672845.874 10 0 59898 81900.00000 0 19343100.217 -1214317.933 16620433.000 10 0 59898 82800.00000 0 21174504.990 -701611.117 14246088.587 10 0 59898 83700.00000 0 22739663.338 -401547.304 11595746.392 10 0 59898 84600.00000 0 23989099.020 -280405.781 8720696.859 10 0 59898 85500.00000 0 24883066.707 -295901.687 5676605.467 10 0 59899 0.00000 0 25393151.815 -399206.599 2522444.927 10 0 59899 900.00000 0 25503418.238 -537249.152 -680640.630 10 0 59899 1800.00000 0 25211054.466 -655198.712 -3870513.884 10 0 59899 2700.00000 0 24526491.155 -699027.399 -6985248.089 10 0 59899 3600.00000 0 23472983.420 -618041.851 -9964328.858 10 0 59899 4500.00000 0 22085674.402 -367277.097 -12749832.100 10 0 59899 5400.00000 0 20410178.261 90349.643 -15287554.599 10 0 59899 6300.00000 0 18500740.994 782217.672 -17528074.762 10 0 59899 7200.00000 0 16418055.463 1724592.625 -19427722.248 10 0 59899 8100.00000 0 14226821.609 2921688.828 -20949437.055 10 0 59899 9000.00000 0 11993153.726 4365245.854 -22063500.710 10 0 59899 9900.00000 0 9781943.284 6034639.161 -22748124.681 10 0 59899 10800.00000 0 7654287.668 7897522.217 -22989884.009 10 0 59899 11700.00000 0 5665092.526 9910974.963 -22783987.138 10 0 59899 12600.00000 0 3860948.217 12023111.882 -22134376.123 10 0 59899 13500.00000 0 2278369.240 14175083.374 -21053654.806 10 0 59899 14400.00000 0 942470.190 16303387.268 -19562845.896 10 0 59899 15300.00000 0 -133866.593 18342393.841 -17690981.401 10 0 59899 16200.00000 0 -950297.488 20226978.416 -15474534.225 10 0 59899 17100.00000 0 -1518786.340 21895150.838 -12956702.053 10 0 59899 18000.00000 0 -1862846.516 23290570.889 -10186557.815 10 0 59899 18900.00000 0 -2016289.892 24364843.559 -7218083.859 10 0 59899 19800.00000 0 -2021537.414 25079497.277 -4109109.425 10 0 59899 20700.00000 0 -1927564.541 25407561.748 -920173.252 10 0 59899 21600.00000 0 -1787570.481 25334679.178 2286665.446 10 0 59899 22500.00000 0 -1656471.644 24859702.617 5449043.323 10 0 59899 23400.00000 0 -1588326.989 23994757.106 8505511.781 10 0 59899 24300.00000 0 -1633805.485 22764762.146 11396733.920 10 0 59899 25200.00000 0 -1837803.631 21206436.781 14066635.853 10 0 59899 26100.00000 0 -2237314.124 19366830.318 16463489.901 10 0 59899 27000.00000 0 -2859635.711 17301441.313 18540909.100 10 0 59899 27900.00000 0 -3720999.447 15072004.269 20258734.578 10 0 59899 28800.00000 0 -4825668.793 12744036.874 21583799.688 10 0 59899 29700.00000 0 -6165550.962 10384249.900 22490557.558 10 0 59899 30600.00000 0 -7720335.654 8057926.870 22961561.394 10 0 59899 31500.00000 0 -9458155.351 5826381.412 22987789.619 10 0 59899 32400.00000 0 -11336740.009 3744596.357 22568810.800 10 0 59899 33300.00000 0 -13305018.723 1859140.793 21712786.046 10 0 59899 34200.00000 0 -15305102.646 206449.771 20436309.252 10 0 59899 35100.00000 0 -17274567.896 -1188463.807 18764088.330 10 0 59899 36000.00000 0 -19148944.854 -2312813.210 16728473.138 10 0 59899 36900.00000 0 -20864311.565 -3166325.681 14368838.444 10 0 59899 37800.00000 0 -22359884.432 -3761003.080 11730832.819 10 0 59899 38700.00000 0 -23580499.279 -4120366.077 8865506.757 10 0 59899 39600.00000 0 -24478879.724 -4278213.803 5828335.714 10 0 59899 40500.00000 0 -25017598.332 -4276951.108 2678155.860 10 0 59899 41400.00000 0 -25170648.173 -4165553.645 -523967.821 10 0 59899 42300.00000 0 -24924558.248 -3997256.342 -3715919.718 10 0 59899 43200.00000 0 -24279005.137 -3827062.725 -6835735.604 10 0 59899 44100.00000 0 -23246893.845 -3709180.381 -9822805.255 10 0 59899 45000.00000 0 -21853903.090 -3694491.326 -12619052.067 10 0 59899 45900.00000 0 -20137512.694 -3828164.897 -15170066.422 10 0 59899 46800.00000 0 -18145552.397 -4147515.154 -17426170.304 10 0 59899 47700.00000 0 -15934331.869 -4680194.660 -19343391.804 10 0 59899 48600.00000 0 -13566429.255 -5442802.563 -20884329.978 10 0 59899 49500.00000 0 -11108230.119 -6439967.507 -22018892.627 10 0 59899 50400.00000 0 -8627319.339 -7663945.937 -22724891.981 10 0 59899 51300.00000 0 -6189834.756 -9094754.576 -22988486.160 10 0 59899 52200.00000 0 -3857893.031 -10700833.292 -22804457.202 10 0 59899 53100.00000 0 -1687195.376 -12440211.952 -22176319.725 10 0 59899 54000.00000 0 275086.850 -14262133.444 -21116257.591 10 0 59899 54900.00000 0 1992058.410 -16109065.549 -19644889.353 10 0 59899 55800.00000 0 3438405.469 -17919017.490 -17790866.748 10 0 59899 56700.00000 0 4601205.881 -19628063.944 -15590313.890 10 0 59899 57600.00000 0 5480211.351 -21172970.131 -13086118.110 10 0 59899 58500.00000 0 6087590.877 -22493807.054 -10327086.591 10 0 59899 59400.00000 0 6447147.839 -23536446.263 -7366985.803 10 0 59899 60300.00000 0 6593045.621 -24254828.514 -4263483.204 10 0 59899 61200.00000 0 6568097.516 -24612910.300 -1077012.944 10 0 59899 62100.00000 0 6421695.291 -24586206.074 2130411.227 10 0 59899 63000.00000 0 6207466.029 -24162861.282 5296411.599 10 0 59899 63900.00000 0 5980758.130 -23344211.477 8359465.894 10 0 59899 64800.00000 0 5796064.364 -22144804.704 11260105.903 10 0 59899 65700.00000 0 5704491.996 -20591887.133 13942071.633 10 0 59899 66600.00000 0 5751387.524 -18724374.557 16353398.378 10 0 59899 67500.00000 0 5974216.471 -16591353.805 18447416.055 10 0 59899 68400.00000 0 6400787.464 -14250177.445 20183642.236 10 0 59899 69300.00000 0 7047894.882 -11764231.760 21528552.662 10 0 59899 70200.00000 0 7920436.582 -9200470.969 22456215.754 10 0 59899 71100.00000 0 9011043.235 -6626819.684 22948780.307 10 0 59899 72000.00000 0 10300234.459 -4109550.627 22996808.354 10 0 59899 72900.00000 0 11757095.188 -1710744.968 22599447.978 10 0 59899 73800.00000 0 13340444.412 514061.119 21764443.617 10 0 59899 74700.00000 0 15000448.125 2517947.871 20507984.153 10 0 59899 75600.00000 0 16680610.243 4264317.381 18854391.747 10 0 59899 76500.00000 0 18320059.681 5728164.048 16835657.006 10 0 59899 77400.00000 0 19856039.407 6896858.687 14490828.736 10 0 59899 78300.00000 0 21226494.910 7770414.995 11865269.035 10 0 59899 79200.00000 0 22372655.021 8361228.125 9009786.904 10 0 59899 80100.00000 0 23241497.806 8693296.771 5979665.980 10 0 59899 81000.00000 0 23787998.790 8800961.655 2833604.100 10 0 59899 81900.00000 0 23977067.026 8727213.348 -367415.793 10 0 59899 82800.00000 0 23785087.282 8521640.516 -3561302.049 10 0 59899 83700.00000 0 23201002.666 8238104.964 -6686055.644 10 0 59899 84600.00000 0 22226890.865 7932241.554 -9680973.248 10 0 59899 85500.00000 0 20878008.293 7658888.724 -12487828.420 10 0 59900 0.00000 0 19182298.675 7469558.649 -15052007.485 10 0 59900 900.00000 0 17179384.069 7410054.584 -17323578.873 10 0 59900 1800.00000 0 14919081.429 7518337.325 -19258271.050 10 0 59900 2700.00000 0 12459502.462 7822731.834 -20818344.104 10 0 59900 3600.00000 0 9864817.360 8340551.495 -21973333.855 10 0 59900 4500.00000 0 7202774.322 9077199.509 -22700654.789 10 0 59900 5400.00000 0 4542078.076 10025786.940 -22986049.308 10 0 59900 6300.00000 0 1949736.502 11167285.101 -22823873.925 10 0 59900 7200.00000 0 -511513.906 12471207.212 -22217216.308 10 0 59900 8100.00000 0 -2785596.398 13896791.802 -21177840.386 10 0 59900 9000.00000 0 -4825196.514 15394638.872 -19725960.133 10 0 59900 9900.00000 0 -6593491.065 16908730.411 -17889846.115 10 0 59900 10800.00000 0 -8065431.717 18378750.313 -15705272.299 10 0 59900 11700.00000 0 -9228530.117 19742605.758 -13214813.883 10 0 59900 12600.00000 0 -10083112.644 20939043.305 -10467010.174 10 0 59900 13500.00000 0 -10642035.501 21910248.730 -7515409.337 10 0 59900 14400.00000 0 -10929873.882 22604320.236 -4417514.395 10 0 59900 15300.00000 0 -10981621.342 22977510.007 -1233652.104 10 0 59900 16200.00000 0 -10840956.364 22996139.039 1974212.151 10 0 59900 17100.00000 0 -10558151.510 22638104.240 5143689.235 10 0 59900 18000.00000 0 -10187715.451 21893914.310 8213186.108 10 0 59900 18900.00000 0 -9785869.318 20767211.167 11123106.116 10 0 59900 19800.00000 0 -9407965.333 19274755.514 13817005.909 10 0 59900 20700.00000 0 -9105957.598 17445877.965 16242686.353 10 0 59900 21600.00000 0 -8926032.161 15321419.473 18353196.652 10 0 59900 22500.00000 0 -8906496.161 12952205.977 20107733.009 10 0 59900 23400.00000 0 -9076014.438 10397121.412 21472415.475 10 0 59900 24300.00000 0 -9452267.053 7720859.329 22420929.381 10 0 59900 25200.00000 0 -10041083.294 4991446.211 22935020.403 10 0 59900 26100.00000 0 -10836087.779 2277638.521 23004835.079 10 0 59900 27000.00000 0 -11818872.997 -353699.855 22629101.478 10 0 59900 27900.00000 0 -12959690.962 -2840132.736 21815147.391 10 0 59900 28800.00000 0 -14218635.272 -5125996.031 20578756.214 10 0 59900 29700.00000 0 -15547264.800 -7164456.161 18943863.381 10 0 59900 30600.00000 0 -16890602.121 -8919199.032 16942098.791 10 0 59900 31500.00000 0 -18189424.194 -10365680.959 14612183.383 10 0 59900 32400.00000 0 -19382750.745 -11491890.991 11999190.472 10 0 59900 33300.00000 0 -20410427.202 -12298593.822 9153684.901 10 0 59900 34200.00000 0 -21215694.977 -12799043.925 6130755.570 10 0 59900 35100.00000 0 -21747641.698 -13018183.099 2988958.862 10 0 59900 36000.00000 0 -21963428.537 -12991355.154 -210807.560 10 0 59900 36900.00000 0 -21830200.807 -12762591.724 -3406479.307 10 0 59900 37800.00000 0 -21326600.533 -12382541.124 -6536025.868 10 0 59900 38700.00000 0 -20443816.164 -11906127.460 -9538654.076 10 0 59900 39600.00000 0 -19186123.715 -11390038.725 -12355990.844 10 0 59900 40500.00000 0 -17570894.677 -10890150.089 -14933221.908 10 0 59900 41400.00000 0 -15628068.472 -10458991.687 -17220163.988 10 0 59900 42300.00000 0 -13399109.725 -10143368.492 -19172248.844 10 0 59900 43200.00000 0 -10935492.303 -9982233.739 -20751399.564 10 0 59900 44100.00000 0 -8296772.076 -10004906.745 -21926781.399 10 0 59900 45000.00000 0 -5548327.818 -10229711.601 -22675411.896 10 0 59900 45900.00000 0 -2758863.714 -10663095.422 -22982617.899 10 0 59900 46800.00000 0 2222.915 -11299264.623 -22842329.935 10 0 59900 47700.00000 0 2667499.121 -12120355.699 -22257207.703 10 0 59900 48600.00000 0 5174068.399 -13097134.298 -21238593.699 10 0 59900 49500.00000 0 7465950.128 -14190193.838 -19806295.415 10 0 59900 50400.00000 0 9496167.043 -15351603.540 -17988200.025 10 0 59900 51300.00000 0 11228453.803 -16526936.464 -15819728.863 10 0 59900 52200.00000 0 12638515.632 -17657591.761 -13343142.316 10 0 59900 53100.00000 0 13714785.019 -18683312.544 -10606708.965 10 0 59900 54000.00000 0 14458645.887 -19544792.362 -7663755.710 10 0 59900 54900.00000 0 14884117.317 -20186259.290 -4571618.117 10 0 59900 55800.00000 0 15017011.874 -20557927.585 -1390512.525 10 0 59900 56700.00000 0 14893606.107 -20618212.595 1817647.016 10 0 59900 57600.00000 0 14558881.390 -20335614.826 4990462.768 10 0 59900 58500.00000 0 14064411.486 -19690193.353 8066273.556 10 0 59900 59400.00000 0 13465987.904 -18674566.499 10985356.628 10 0 59900 60300.00000 0 12821084.878 -17294397.874 13691087.321 10 0 59900 61200.00000 0 12186272.033 -15568347.848 16131033.771 10 0 59900 62100.00000 0 11614684.449 -13527493.024 18257965.806 10 0 59900 63000.00000 0 11153656.752 -11214238.471 20030759.232 10 0 59900 63900.00000 0 10842620.387 -8680768.534 21415179.026 10 0 59900 64800.00000 0 10711351.663 -5987100.788 22384527.695 10 0 59900 65700.00000 0 10778643.153 -3198823.699 22920147.733 10 0 59900 66600.00000 0 11051453.098 -384611.275 23011769.832 10 0 59900 67500.00000 0 11524567.569 2386383.440 22657701.426 10 0 59900 68400.00000 0 12180788.870 5047149.530 21864852.809 10 0 59900 69300.00000 0 12991642.017 7535347.134 20648600.853 10 0 59900 70200.00000 0 13918569.863 9795641.275 19032493.056 10 0 59900 71100.00000 0 14914567.345 11781745.693 17047797.266 10 0 59900 72000.00000 0 15926187.246 13458093.508 14732905.059 10 0 59900 72900.00000 0 16895834.425 14801066.724 12132599.319 10 0 59900 73800.00000 0 17764253.350 15799734.548 9297198.953 10 0 59900 74700.00000 0 18473105.469 16456070.415 6281596.172 10 0 59900 75600.00000 0 18967528.745 16784639.061 3144203.768 10 0 59900 76500.00000 0 19198572.071 16811766.894 -54168.131 10 0 59900 77400.00000 0 19125401.834 16574230.256 -3251484.759 10 0 59900 78300.00000 0 18717187.081 16117516.562 -6385686.536 10 0 59900 79200.00000 0 17954582.910 15493731.326 -9395892.849 10 0 59900 80100.00000 0 16830747.950 14759238.981 -12223586.270 10 0 59900 81000.00000 0 15351851.313 13972137.010 -14813753.901 10 0 59900 81900.00000 0 13537045.645 13189670.075 -17115963.212 10 0 59900 82800.00000 0 11417905.277 12465693.661 -19085350.822 10 0 59900 83700.00000 0 9037351.046 11848294.848 -20683504.431 10 0 59900 84600.00000 0 6448104.887 11377671.347 -21879220.143 10 0 59900 85500.00000 0 3710737.389 11084359.155 -22649119.763 99